TimePDT,TemperatureF,Dew PointF,Humidity,Sea Level PressureIn,VisibilityMPH,Wind Direction,Wind SpeedMPH,Gust SpeedMPH,PrecipitationIn,Events,Conditions,WindDirDegrees,DateUTC
12:53 AM,66.0,44.1,45,29.90,10.0,Calm,Calm,-,N/A,,Clear,0,2013-07-24 07:53:00
1:53 AM,63.0,46.9,56,29.90,10.0,ENE,3.5,-,N/A,,Clear,60,2013-07-24 08:53:00
2:53 AM,61.0,48.0,62,29.91,10.0,NNE,4.6,-,N/A,,Clear,30,2013-07-24 09:53:00
3:53 AM,62.1,48.0,60,29.91,10.0,NE,4.6,-,N/A,,Clear,40,2013-07-24 10:53:00
4:53 AM,60.1,48.0,64,29.93,10.0,Calm,Calm,-,N/A,,Clear,0,2013-07-24 11:53:00
5:53 AM,59.0,48.9,69,29.93,10.0,NE,3.5,-,N/A,,Clear,50,2013-07-24 12:53:00
6:53 AM,64.9,48.9,56,29.94,10.0,Calm,Calm,-,N/A,,Clear,0,2013-07-24 13:53:00
7:53 AM,68.0,50.0,52,29.95,10.0,Variable,3.5,-,N/A,,Clear,0,2013-07-24 14:53:00
8:53 AM,75.9,46.0,35,29.96,10.0,Calm,Calm,-,N/A,,Clear,0,2013-07-24 15:53:00
9:53 AM,80.1,44.1,28,29.95,10.0,Calm,Calm,-,N/A,,Clear,0,2013-07-24 16:53:00
10:53 AM,84.9,46.0,26,29.94,10.0,Calm,Calm,-,N/A,,Clear,0,2013-07-24 17:53:00
11:53 AM,88.0,43.0,21,29.94,10.0,West,5.8,-,N/A,,Clear,260,2013-07-24 18:53:00
12:53 PM,91.9,39.9,16,29.92,10.0,SW,5.8,-,N/A,,Clear,230,2013-07-24 19:53:00
1:53 PM,93.9,39.9,15,29.91,9.0,Calm,Calm,-,N/A,,Clear,0,2013-07-24 20:53:00
2:53 PM,93.9,39.0,15,29.90,10.0,West,6.9,-,N/A,,Clear,280,2013-07-24 21:53:00
3:53 PM,95.0,35.1,12,29.88,10.0,Variable,5.8,17.3,N/A,,Clear,0,2013-07-24 22:53:00
4:53 PM,96.1,33.1,11,29.88,10.0,West,8.1,-,N/A,,Clear,260,2013-07-24 23:53:00
5:53 PM,95.0,33.1,11,29.87,10.0,WSW,3.5,-,N/A,,Clear,250,2013-07-25 00:53:00
6:53 PM,93.9,35.1,13,29.86,10.0,West,4.6,-,N/A,,Clear,280,2013-07-25 01:53:00
7:53 PM,88.0,39.9,18,29.87,10.0,Calm,Calm,-,N/A,,Clear,0,2013-07-25 02:53:00
8:53 PM,78.1,37.9,24,29.88,10.0,NE,3.5,-,N/A,,Clear,40,2013-07-25 03:53:00
9:53 PM,73.9,41.0,30,29.89,10.0,NE,4.6,-,N/A,,Clear,40,2013-07-25 04:53:00
10:53 PM,75.9,42.1,30,29.89,10.0,Calm,Calm,-,N/A,,Clear,0,2013-07-25 05:53:00
11:53 PM,73.0,45.0,37,29.90,10.0,NE,4.6,-,N/A,,Clear,50,2013-07-25 06:53:00